Weather History for Hot Springs, VA

Change the Weather History Date:

Monday, February 18, 2013

  Actual Average Record
Temperature  
Mean Temperature 24 °F -  
Max Temperature 39 °F 36 °F 55 °F (2011)
Min Temperature 10 °F 21 °F 6 °F (2001)
Degree Days  
Heating Degree Days 40    
Moisture  
Dew Point 11 °F    
Average Humidity 56    
Maximum Humidity 67    
Minimum Humidity 41    
Precipitation  
Precipitation 0.00 in - - ()
Sea Level Pressure  
Sea Level Pressure 30.13 in    
Wind  
Wind Speed 15 mph (WSW)    
Max Wind Speed 21 mph    
Max Gust Speed 26 mph    
Visibility 10 miles    
Events      
Averages and records for this station are not official NWS values.
T = Trace of Precipitation, MM = Missing Value Source: NWS Daily Summary

Daily Weather History Graph

Daily Weather History Graph

Search for Another Location

Airport:

Trip Planner

Search our weather history database for the weather conditions in past years. The results will help you decide how hot, cold, wet, or windy it might be!

Date:

Astronomy

Feb. 18, 2013 Rise Set
Actual Time 7:05 AM EST 6:01 PM EST
Civil Twilight 6:38 AM EST 6:28 PM EST
Nautical Twilight 6:07 AM EST 6:59 PM EST
Astronomical Twilight 5:37 AM EST 7:29 PM EST
Moon 11:49 AM EST (2/18) 1:40 AM EST (2/18)
Length of Visible Light 11h 49m
Length of Day
10h 56m
First Quarter, 58% of the Moon is Illuminated
Feb 18
First Quarter
Feb 25
Full
Mar 4
Last Quarter
Mar 11
New
Mar 19
First Quarter

Hourly Weather History & Observations

Time (EST) Temp. Windchill Dew Point Humidity Pressure Visibility Wind Dir Wind Speed Gust Speed Precip Events Conditions
12:15 AM 10.4 °F -8.2 °F 1.4 °F 67% 30.03 in 10.0 mi West 19.6 mph 25.3 mph N/A   Clear
12:35 AM 10.4 °F -8.6 °F 1.4 °F 67% 30.04 in 10.0 mi WNW 20.7 mph 24.2 mph N/A   Clear
12:55 AM 10.4 °F -8.6 °F 1.4 °F 67% 30.04 in 10.0 mi West 20.7 mph 26.5 mph N/A   Clear
1:15 AM 10.4 °F -8.2 °F 1.4 °F 67% 30.04 in 10.0 mi West 19.6 mph - N/A   Clear
1:55 AM 10.4 °F -7.2 °F 1.4 °F 67% 30.05 in 10.0 mi West 17.3 mph 25.3 mph N/A   Clear
2:15 AM 10.4 °F -4.8 °F 1.4 °F 67% 30.06 in 10.0 mi West 12.7 mph 19.6 mph N/A   Clear
2:35 AM 10.4 °F -6.0 °F 1.4 °F 67% 30.05 in 10.0 mi West 15.0 mph - N/A   Clear
2:55 AM 10.4 °F -5.4 °F 1.4 °F 67% 30.06 in 10.0 mi West 13.8 mph 19.6 mph N/A   Clear
3:15 AM 12.2 °F -3.7 °F 1.4 °F 62% 30.07 in 10.0 mi West 15.0 mph 19.6 mph N/A   Clear
3:35 AM 12.2 °F -3.7 °F 1.4 °F 62% 30.07 in 10.0 mi West 15.0 mph - N/A   Clear
3:55 AM 12.2 °F -4.3 °F 1.4 °F 62% 30.07 in 10.0 mi West 16.1 mph 19.6 mph N/A   Clear
4:15 AM 12.2 °F -4.3 °F 1.4 °F 62% 30.08 in 10.0 mi West 16.1 mph 20.7 mph N/A   Clear
4:35 AM 12.2 °F -3.7 °F 1.4 °F 62% 30.08 in 10.0 mi West 15.0 mph - N/A   Clear
4:55 AM 12.2 °F -4.3 °F 1.4 °F 62% 30.10 in 10.0 mi West 16.1 mph - N/A   Clear
5:15 AM 12.2 °F -4.8 °F 1.4 °F 62% 30.11 in 10.0 mi West 17.3 mph - N/A   Clear
5:35 AM 12.2 °F -4.8 °F 1.4 °F 62% 30.12 in 10.0 mi West 17.3 mph - N/A   Clear
5:55 AM 12.2 °F -4.8 °F 1.4 °F 62% 30.13 in 10.0 mi West 17.3 mph - N/A   Clear
6:15 AM 12.2 °F -4.8 °F 1.4 °F 62% 30.13 in 10.0 mi West 17.3 mph - N/A   Clear
6:55 AM 12.2 °F -4.8 °F 1.4 °F 62% 30.14 in 10.0 mi West 17.3 mph - N/A   Clear
7:15 AM 15.8 °F -1.1 °F 1.4 °F 53% 30.14 in 10.0 mi West 19.6 mph 23.0 mph N/A   Clear
7:55 AM 17.6 °F 2.2 °F 3.2 °F 53% 30.17 in 10.0 mi West 17.3 mph - N/A   Clear
8:15 AM 17.6 °F 2.2 °F 5.0 °F 58% 30.17 in 10.0 mi West 17.3 mph - N/A   Clear
8:35 AM 19.4 °F 5.5 °F 6.8 °F 58% 30.18 in 10.0 mi West 15.0 mph - N/A   Clear
8:55 AM 19.4 °F 6.6 °F 6.8 °F 58% 30.19 in 10.0 mi West 12.7 mph - N/A   Clear
9:15 AM 21.2 °F 8.3 °F 6.8 °F 54% 30.19 in 10.0 mi West 13.8 mph - N/A   Clear
9:35 AM 21.2 °F 8.3 °F 10.4 °F 63% 30.19 in 10.0 mi West 13.8 mph - N/A   Clear
9:55 AM 24.8 °F 12.9 °F 10.4 °F 54% 30.19 in 10.0 mi West 13.8 mph - N/A   Clear
10:15 AM 24.8 °F 12.4 °F 10.4 °F 54% 30.20 in 10.0 mi West 15.0 mph - N/A   Clear
10:35 AM 26.6 °F 16.8 °F 12.2 °F 55% 30.20 in 10.0 mi West 10.4 mph - N/A   Clear
10:55 AM 28.4 °F 18.5 °F 14.0 °F 55% 30.20 in 10.0 mi West 11.5 mph - N/A   Clear
11:15 AM 28.4 °F 18.5 °F 14.0 °F 55% 30.20 in 10.0 mi West 11.5 mph - N/A   Clear
11:35 AM 30.2 °F 20.8 °F 15.8 °F 55% 30.20 in 10.0 mi West 11.5 mph - N/A   Clear
11:55 AM 32.0 °F 23.6 °F 17.6 °F 55% 30.19 in 10.0 mi West 10.4 mph - N/A   Clear
12:15 PM 33.8 °F 25.8 °F 17.6 °F 52% 30.19 in 10.0 mi West 10.4 mph - N/A   Clear
12:35 PM 33.8 °F 25.8 °F 17.6 °F 52% 30.19 in 10.0 mi WSW 10.4 mph - N/A   Clear
12:55 PM 35.6 °F 28.0 °F 17.6 °F 48% 30.18 in 10.0 mi West 10.4 mph - N/A   Clear
1:15 PM 35.6 °F 28.6 °F 19.4 °F 52% 30.18 in 10.0 mi WSW 9.2 mph - N/A   Clear
1:35 PM 37.4 °F 29.8 °F 19.4 °F 48% 30.17 in 10.0 mi WSW 11.5 mph - N/A   Clear
1:55 PM 37.4 °F 29.8 °F 19.4 °F 48% 30.17 in 10.0 mi SW 11.5 mph - N/A   Clear
2:15 PM 39.2 °F 32.0 °F 21.2 °F 49% 30.16 in 10.0 mi WSW 11.5 mph - N/A   Clear
2:35 PM 39.2 °F 32.0 °F 21.2 °F 49% 30.16 in 10.0 mi WSW 11.5 mph 19.6 mph N/A   Clear
3:15 PM 37.4 °F 32.8 °F 15.8 °F 41% 30.15 in 10.0 mi South 5.8 mph - N/A   Clear
3:35 PM 37.4 °F 32.1 °F 17.6 °F 45% 30.15 in 10.0 mi SSE 6.9 mph - N/A   Clear
3:55 PM 37.4 °F 32.1 °F 17.6 °F 45% 30.15 in 10.0 mi SSE 6.9 mph - N/A   Clear
4:15 PM 37.4 °F 32.1 °F 17.6 °F 45% 30.15 in 10.0 mi South 6.9 mph - N/A   Clear
4:35 PM 37.4 °F 32.1 °F 17.6 °F 45% 30.15 in 10.0 mi South 6.9 mph - N/A   Clear
4:55 PM 37.4 °F 33.8 °F 17.6 °F 45% 30.14 in 10.0 mi South 4.6 mph - N/A   Clear
5:15 PM 35.6 °F 29.9 °F 17.6 °F 48% 30.14 in 10.0 mi South 6.9 mph - N/A   Clear
5:35 PM 35.6 °F 29.9 °F 17.6 °F 48% 30.15 in 10.0 mi South 6.9 mph - N/A   Clear
6:15 PM 35.6 °F 29.2 °F 17.6 °F 48% 30.15 in 10.0 mi South 8.1 mph - N/A   Clear
6:35 PM 35.6 °F 29.2 °F 17.6 °F 48% 30.15 in 10.0 mi South 8.1 mph - N/A   Clear
6:55 PM 33.8 °F 27.0 °F 17.6 °F 52% 30.14 in 10.0 mi South 8.1 mph - N/A   Clear
7:15 PM 35.6 °F 27.5 °F 17.6 °F 48% 30.14 in 10.0 mi South 11.5 mph 16.1 mph N/A   Clear
7:35 PM 35.6 °F 27.5 °F 17.6 °F 48% 30.14 in 10.0 mi South 11.5 mph 18.4 mph N/A   Clear
7:55 PM 33.8 °F 24.8 °F 17.6 °F 52% 30.13 in 10.0 mi South 12.7 mph 18.4 mph N/A   Clear
8:15 PM 33.8 °F 24.8 °F 17.6 °F 52% 30.12 in 10.0 mi South 12.7 mph - N/A   Clear
8:35 PM 33.8 °F 24.8 °F 19.4 °F 56% 30.11 in 10.0 mi South 12.7 mph 19.6 mph N/A   Clear
9:37 PM 33.8 °F 24.3 °F 19.4 °F 56% 30.11 in 10.0 mi South 13.8 mph - N/A   Clear
10:15 PM 32.0 °F 22.5 °F 19.4 °F 60% 30.11 in 10.0 mi South 12.7 mph 19.6 mph N/A   Clear
10:35 PM 32.0 °F 23.6 °F 19.4 °F 60% 30.10 in 10.0 mi SSE 10.4 mph 16.1 mph N/A   Clear
11:15 PM 30.2 °F 21.9 °F 19.4 °F 64% 30.07 in 10.0 mi SSE 9.2 mph - N/A   Clear
11:55 PM 30.2 °F 21.3 °F 19.4 °F 64% 30.04 in 10.0 mi SSE 10.4 mph 16.1 mph N/A   Clear
11:56 PM 30.2 °F 21.9 °F 19.4 °F 64% 30.04 in 10.0 mi SSE 9.2 mph 16.1 mph N/A   Clear